Location: Unspecified
(0.0000°N, 0.0000°E)
Time: 16:24:04
(UTC+00:00)

Courier 1B - Pass Details

Date: 20 November 2019
Orbit: 963 x 1209 km, 28.3° (Epoch: 12 December)

Event Time Altitude Azimuth Distance (km) Brightness Sun altitude
Exits shadow 03:28:50 16° 20° (NNE) 2,491 9.6 -31.9°
Drops below altitude 10° 03:30:22 10° 29° (NNE) 2,882 10.0 -31.6°
Sets 03:33:27 0° 40° (NE) 3,793 10.8 -30.9°
